sat.trackr.live / text

‹ back to catalog

STARLINK-37854

NORAD 69494 · 2026-131S

PAYLOAD ACTIVE UNKNOWN

§ Identity

Operator
Country
US
Launch date
2026-06-11
Launch site
AFWTR
Launch vehicle
Mass (kg)
RCS (m²)

Purposes: comms

External: N2YO · Heavens-Above · Gunter

§ Orbital elements

Epoch: 2026-09-20T00:02:54.464064Z

Period
93.91 min
Inclination
97.2845°
Eccentricity
0.0000810
Mean motion
15.33452345 rev/d
Perigee alt
465.0 km
Apogee alt
466.1 km
Semi-major
6,843.7 km
B*
5.0079e-4
RAAN
283.9108°
Arg perigee
49.8534°
Mean anomaly
310.2780°
Rev number
1,682

§ Raw data

STARLINK-378541 69494U 26131S   26263.00201926  .00016130  00000+0  50079-3 0  99982 69494  97.2845 283.9108 0000810  49.8534 310.2780 15.33452345 16825

JSON: /api/v1/satellites/69494 · /tle

For live sub-satellite position, see the globe view (requires WebGL).

§ Visibility from observer

Set your observer location to see the next 7 days of passes ≥ 10°. The values pass through the URL so the page stays shareable.

No JS? Fill the form by hand. The geolocation button needs JavaScript.